This is the latest recevied weather packets stored in our database for station/object EB2EMZ-14. If no packets are shown the sender has not sent any weather packets the latest 10 day(s).
| Time | Temp. | Humidity | Pressure | Rain* | Wind** | Luminosity | Snow |
|---|---|---|---|---|---|---|---|
| 1777642814 | 22.78° C | 60% | 1017.6 hPa | 0 mm | - | 0 W/m² | - |
| 1777642514 | 22.78° C | 60% | 1017.7 hPa | 0 mm | - | 0 W/m² | - |
| 1777642214 | 23.33° C | 61% | 1017.5 hPa | 0 mm | - | 0 W/m² | - |
| 1777641914 | 23.33° C | 61% | 1017.7 hPa | 0 mm | - | 0 W/m² | - |
| 1777641615 | 23.33° C | 62% | 1017.6 hPa | 0 mm | - | 0 W/m² | - |
| 1777641314 | 22.78° C | 63% | 1017.6 hPa | 0 mm | - | 0 W/m² | - |
| 1777641014 | 22.78° C | 63% | 1017.6 hPa | 0 mm | - | 0 W/m² | - |
| 1777640714 | 22.22° C | 62% | 1017.7 hPa | 0 mm | - | 0 W/m² | - |
| 1777640414 | 22.22° C | 63% | 1017.7 hPa | 0 mm | - | 0 W/m² | - |
| 1777640114 | 22.22° C | 64% | 1017.7 hPa | 0 mm | - | 0 W/m² | - |
| 1777639814 | 21.67° C | 64% | 1017.6 hPa | 0 mm | - | 0 W/m² | - |
| 1777639513 | 21.67° C | 64% | 1017.5 hPa | 0 mm | - | 0 W/m² | - |
| 1777639214 | 21.67° C | 65% | 1017.5 hPa | 0 mm | - | 0 W/m² | - |
| 1777638915 | 21.11° C | 64% | 1017.6 hPa | 0 mm | - | 0 W/m² | - |
| 1777638614 | 21.67° C | 63% | 1017.6 hPa | 0 mm | - | 0 W/m² | - |
| 1777638313 | 21.11° C | 64% | 1017.7 hPa | 0 mm | - | 0 W/m² | - |
| 1777638014 | 21.11° C | 63% | 1017.7 hPa | 0 mm | - | 0 W/m² | - |
| 1777637714 | 21.67° C | 64% | 1017.8 hPa | 0 mm | - | 0 W/m² | - |
| 1777637414 | 21.67° C | 63% | 1017.9 hPa | 0 mm | - | 0 W/m² | - |
| 1777637113 | 21.11° C | 66% | 1017.9 hPa | 0 mm | - | 0 W/m² | - |
| 1777636814 | 20.56° C | 66% | 1018 hPa | 0 mm | - | 0 W/m² | - |
| 1777636513 | 20.56° C | 65% | 1017.9 hPa | 0 mm | - | 0 W/m² | - |
| 1777636214 | 20.56° C | 64% | 1018 hPa | 0 mm | - | 0 W/m² | - |
| 1777635914 | 21.11° C | 63% | 1017.9 hPa | 0 mm | - | 0 W/m² | - |
| 1777635615 | 21.11° C | 63% | 1018 hPa | 0 mm | - | 0 W/m² | - |
* Rain latest hour (hover to see other rain measurements)
** Current wind speed in m/s (hover to see current wind gust speed)